[[{"header":{"parameterUnit":"m.s-1","parameterCategory":1,"la1":30.2991,"la2":30.254,"lo1":-89.0895,"lo2":-89.0444,"dy":0.0017,"dx":0.0017,"nx":28,"ny":28,"refTime":"2023-04-01T21:00:00:Z","depth":0,"parameterNumber":2,"parameterNumberName":"U-component_of_WINDS"},"data":[0,0,0,0,0,0,0,0,0,0,0,0,0,0,0,0,0,0,0,0,0,0,0,0,0,0,0,0,0,0,0,0,0,0,0,0,0,0,0,0,0,0,0,0,0,0,0,0,0,0,0,0,0,0,0,0,0,0,-0.2479,-0.2477,0,-0.2349,-0.2347,-0.2346,-0.2294,-0.2294,-0.2294,-0.2294,-0.2161,-0.2157,-0.2153,0,0,0,0,0,0,0,0,0,0,0,0,0,-0.2679,-0.2676,-0.2479,-0.2477,-0.2475,-0.2349,-0.2347,-0.2345,-0.2293,-0.2294,-0.2294,-0.2295,-0.2162,-0.2157,-0.2153,0,0,0,0,0,0,0,0,0,0,0,0,0,-0.2575,-0.2675,-0.2479,-0.2434,-0.2429,-0.2349,-0.2347,-0.2345,-0.2293,-0.2294,-0.2294,-0.2295,-0.2163,-0.2158,-0.2152,-0.2107,0,0,-0.2134,-0.2132,0,0,0,0,0,0,0,0,-0.2581,-0.2568,-0.2442,-0.2437,-0.2431,-0.2338,-0.2369,-0.2265,-0.2293,-0.2345,-0.2294,-0.2295,-0.2219,-0.2209,-0.2183,-0.2101,-0.2095,-0.2134,-0.213,-0.2128,-0.2126,0,0,0,0,0,0,0,-0.2588,-0.2573,-0.2427,-0.2441,-0.2434,-0.242,-0.2406,-0.2349,-0.2281,-0.234,-0.2336,-0.2322,-0.2216,-0.2189,-0.218,-0.2093,-0.2134,-0.2129,-0.2125,-0.2123,-0.1964,-0.1964,0,0,0,0,0,0,-0.2603,-0.2579,-0.2431,-0.2423,-0.2509,-0.2416,-0.24,-0.2367,-0.2281,-0.2269,-0.2321,-0.232,-0.2199,-0.2187,-0.2175,-0.2115,-0.2128,-0.2122,-0.2119,-0.1965,-0.1964,-0.1963,0,0,0,0,0,0,-0.2608,-0.259,-0.2437,-0.25,-0.248,-0.2412,-0.2376,-0.2364,-0.2337,-0.2267,-0.2255,-0.2306,-0.2199,-0.2183,-0.2124,-0.211,-0.212,-0.2115,-0.1966,-0.1965,-0.1964,-0.1996,0,0,0,0,0,0,-0.2614,-0.2592,-0.2575,-0.25,-0.2476,-0.2389,-0.2375,-0.2362,-0.2328,-0.2324,-0.225,-0.2238,-0.2198,-0.2133,-0.2118,-0.2102,-0.211,-0.1967,-0.1966,-0.1964,-0.1996,-0.1996,-0.1996,0,0,0,0,0,-0.2621,-0.259,-0.2575,-0.2557,-0.2454,-0.2388,-0.2374,-0.2329,-0.2327,-0.2308,-0.2263,-0.224,-0.2114,-0.2127,-0.211,-0.2092,-0.1968,-0.1966,-0.1964,-0.1996,-0.1996,-0.1996,0,0,0,0,0,0,-0.2665,-0.2579,-0.2562,-0.2505,-0.2454,-0.2379,-0.2355,-0.2331,-0.2279,-0.2278,-0.2224,-0.2208,-0.2153,-0.2116,-0.2133,-0.2043,-0.2039,-0.2034,-0.2069,-0.2068,-0.2069,-0.2078,-0.2105,0,0,0,0,0,-0.2669,-0.2623,-0.255,-0.2507,-0.2482,-0.2423,-0.2393,-0.2362,-0.2307,-0.2285,-0.2235,-0.2182,-0.213,-0.2097,-0.2046,-0.199,-0.1972,-0.1969,-0.197,-0.197,-0.1966,-0.1932,-0.193,-0.1958,-0.1958,-0.1958,0,0,-0.2675,-0.2622,-0.2597,-0.2515,-0.2472,-0.2424,-0.2405,-0.2357,-0.2321,-0.2278,-0.2218,-0.218,-0.2117,-0.2059,-0.2031,-0.2027,-0.1954,-0.1968,-0.1969,-0.1965,-0.193,-0.1928,-0.1926,-0.1957,-0.1957,-0.1957,0,0,-0.2662,-0.2618,-0.2577,-0.2534,-0.2468,-0.2429,-0.2419,-0.2347,-0.2319,-0.2259,-0.2225,-0.2181,-0.2094,-0.2049,-0.2016,-0.1984,-0.196,-0.1969,-0.197,-0.1937,-0.1935,-0.1933,-0.192,-0.1916,-0.1965,-0.1965,-0.1965,0,-0.2678,-0.2606,-0.2559,-0.2511,-0.2475,-0.2434,-0.2391,-0.2351,-0.2273,-0.2248,-0.2245,-0.2133,-0.2087,-0.2018,-0.201,-0.1984,-0.197,-0.1977,-0.1939,-0.1937,-0.1934,-0.1921,-0.1917,-0.1966,-0.1966,-0.1966,-0.1966,0,-0.2628,-0.2579,-0.2553,-0.2478,-0.2439,-0.2394,-0.2339,-0.2305,-0.2278,-0.2238,-0.2176,-0.212,-0.2056,-0.2037,-0.201,-0.1963,-0.1962,-0.195,-0.1945,-0.1933,-0.192,-0.1915,-0.1968,-0.1968,-0.1967,-0.1967,0,0,-0.264,-0.2538,-0.2529,-0.2494,-0.2418,-0.2378,-0.2331,-0.2268,-0.2239,-0.2186,-0.2144,-0.207,-0.2057,-0.2019,-0.1986,-0.1958,-0.1934,-0.1948,-0.1946,-0.1947,-0.1877,-0.1886,-0.1882,-0.1918,-0.1917,-0.1916,-0.1882,0,-0.2617,-0.253,-0.2485,-0.2418,-0.2371,-0.2329,-0.2288,-0.2236,-0.2197,-0.2151,-0.2108,-0.2056,-0.2044,-0.202,-0.199,-0.1944,-0.1919,-0.1946,-0.1878,-0.1876,-0.1894,-0.1875,-0.1885,-0.1856,-0.1877,-0.1876,-0.1875,0,-0.2578,-0.2524,-0.2452,-0.238,-0.2358,-0.2322,-0.2259,-0.2216,-0.2156,-0.2129,-0.2086,-0.2053,-0.2,-0.1999,-0.1925,-0.1943,-0.1913,-0.1885,-0.1883,-0.1874,-0.1875,-0.1865,-0.1845,-0.184,-0.1867,-0.1868,-0.1868,0,-0.2593,-0.2503,-0.2447,-0.2418,-0.2333,-0.2308,-0.2271,-0.2211,-0.2176,-0.2121,-0.2097,-0.2037,-0.2003,-0.1957,-0.1908,-0.1912,-0.1838,-0.1833,-0.1814,-0.1815,-0.18,-0.1801,-0.1774,-0.1782,-0.1782,-0.1782,-0.1782,0,-0.257,-0.2528,-0.2452,-0.2419,-0.2369,-0.2317,-0.2268,-0.2228,-0.2175,-0.2132,-0.2092,-0.2052,-0.1991,-0.1943,-0.1905,-0.1848,-0.1833,-0.181,-0.18,-0.1813,-0.1816,-0.1792,-0.1792,-0.1781,-0.1781,-0.1781,-0.1781,0,-0.2579,-0.2527,-0.2464,-0.2388,-0.2367,-0.2334,-0.2268,-0.2233,-0.2192,-0.2137,-0.2121,-0.2056,-0.1997,-0.1944,-0.1866,-0.184,-0.1782,-0.177,-0.1803,-0.1797,-0.178,-0.1782,-0.1736,-0.1726,-0.1742,-0.1742,-0.1742,0,-0.2568,-0.2534,-0.2454,-0.2422,-0.2385,-0.2335,-0.2298,-0.2245,-0.2207,-0.2135,-0.2108,-0.2047,-0.1994,-0.1902,-0.1847,-0.1787,-0.1773,-0.176,-0.1763,-0.1777,-0.1771,-0.1773,-0.1769,-0.1761,-0.1761,-0.1761,-0.1761,0,-0.2554,-0.2529,-0.2478,-0.2416,-0.2373,-0.2323,-0.2271,-0.2247,-0.2183,-0.2143,-0.2083,-0.2042,-0.1962,-0.19,-0.1833,-0.1794,-0.1767,-0.1761,-0.1753,-0.1765,-0.1785,-0.1773,-0.1803,-0.1762,-0.1762,-0.1762,-0.1762,-0.1762,-0.2551,-0.2518,-0.2456,-0.2399,-0.2355,-0.2306,-0.2269,-0.2223,-0.2171,-0.2102,-0.2073,-0.2011,-0.1949,-0.1857,-0.1818,-0.1767,-0.1762,-0.1751,-0.1748,-0.1746,-0.1748,-0.1793,-0.1755,-0.1755,-0.1755,-0.1755,-0.1755,0,-0.2534,-0.2492,-0.244,-0.2368,-0.2323,-0.2301,-0.2241,-0.2205,-0.2151,-0.2096,-0.2045,-0.1974,-0.1914,-0.1854,-0.179,-0.1761,-0.1747,-0.1746,-0.1748,-0.1739,-0.1757,-0.1769,-0.1759,-0.1759,-0.1759,-0.1759,-0.1759,-0.1759,-0.252,-0.2462,-0.243,-0.2349,-0.2307,-0.2246,-0.2214,-0.2168,-0.2124,-0.2047,-0.1996,-0.1958,-0.19,-0.1832,-0.1775,-0.1758,-0.1736,-0.1739,-0.1719,-0.1737,-0.1738,-0.1738,-0.175,-0.1735,-0.1735,-0.1705,-0.1705,-0.1705]},{"header":{"parameterUnit":"m.s-1","parameterCategory":1,"la1":30.2991,"la2":30.254,"lo1":-89.0895,"lo2":-89.0444,"dy":0.0017,"dx":0.0017,"nx":28,"ny":28,"refTime":"2023-04-01T21:00:00:Z","depth":0,"parameterNumber":3,"parameterNumberName":"V-component_of_WINDS"},"data":[0,0,0,0,0,0,0,0,0,0,0,0,0,0,0,0,0,0,0,0,0,0,0,0,0,0,0,0,0,0,0,0,0,0,0,0,0,0,0,0,0,0,0,0,0,0,0,0,0,0,0,0,0,0,0,0,0,0,-1.4681,-1.4681,0,-1.4667,-1.4667,-1.4667,-1.4675,-1.4675,-1.4675,-1.4676,-1.4657,-1.4657,-1.4656,0,0,0,0,0,0,0,0,0,0,0,0,0,-1.4711,-1.471,-1.4681,-1.4681,-1.468,-1.4667,-1.4667,-1.4667,-1.4675,-1.4675,-1.4676,-1.4676,-1.4658,-1.4657,-1.4656,0,0,0,0,0,0,0,0,0,0,0,0,0,-1.4697,-1.471,-1.4681,-1.4683,-1.4683,-1.4667,-1.4667,-1.4667,-1.4674,-1.4675,-1.4676,-1.4676,-1.4658,-1.4657,-1.4656,-1.4635,0,0,-1.4652,-1.4651,0,0,0,0,0,0,0,0,-1.4698,-1.4696,-1.4683,-1.4683,-1.4683,-1.4673,-1.4671,-1.4656,-1.4674,-1.4678,-1.4676,-1.4677,-1.4662,-1.466,-1.4656,-1.4635,-1.4634,-1.4651,-1.4651,-1.465,-1.465,0,0,0,0,0,0,0,-1.4699,-1.4697,-1.4675,-1.4683,-1.4683,-1.4683,-1.4682,-1.4668,-1.4666,-1.4677,-1.4678,-1.4676,-1.4662,-1.4658,-1.4656,-1.4634,-1.4652,-1.465,-1.465,-1.4649,-1.4595,-1.4594,0,0,0,0,0,0,-1.47,-1.4698,-1.4676,-1.4675,-1.4692,-1.4682,-1.4681,-1.4676,-1.4667,-1.4666,-1.4676,-1.4677,-1.4659,-1.4657,-1.4655,-1.4631,-1.465,-1.4649,-1.4648,-1.4596,-1.4595,-1.4594,0,0,0,0,0,0,-1.4701,-1.4698,-1.4676,-1.4686,-1.4684,-1.4681,-1.4675,-1.4675,-1.4671,-1.4666,-1.4665,-1.4672,-1.466,-1.4657,-1.4641,-1.4631,-1.4648,-1.4647,-1.4596,-1.4595,-1.4595,-1.4583,0,0,0,0,0,0,-1.4702,-1.4699,-1.4692,-1.4686,-1.4683,-1.4663,-1.4675,-1.4674,-1.4669,-1.467,-1.4662,-1.4661,-1.466,-1.4643,-1.4639,-1.4629,-1.4646,-1.4597,-1.4596,-1.4595,-1.4585,-1.4582,-1.458,0,0,0,0,0,-1.4703,-1.4688,-1.4691,-1.4688,-1.4675,-1.4662,-1.466,-1.4661,-1.4668,-1.4661,-1.4657,-1.4661,-1.4633,-1.4641,-1.4637,-1.4627,-1.4598,-1.4596,-1.4595,-1.4586,-1.4583,-1.458,0,0,0,0,0,0,-1.4691,-1.4687,-1.4691,-1.4674,-1.4669,-1.4664,-1.4654,-1.4658,-1.4649,-1.465,-1.4651,-1.4649,-1.4632,-1.4628,-1.4637,-1.4607,-1.4616,-1.4614,-1.461,-1.4607,-1.4605,-1.4606,-1.4645,0,0,0,0,0,-1.4686,-1.4678,-1.4675,-1.466,-1.4657,-1.4656,-1.4651,-1.4652,-1.4646,-1.4643,-1.4639,-1.4632,-1.4621,-1.4614,-1.4604,-1.4584,-1.4582,-1.4575,-1.4573,-1.4571,-1.4569,-1.4558,-1.4555,-1.4589,-1.4589,-1.4589,0,0,-1.4676,-1.4674,-1.4668,-1.4658,-1.4653,-1.4644,-1.4654,-1.4643,-1.4635,-1.4641,-1.4626,-1.4622,-1.4614,-1.4596,-1.4588,-1.4592,-1.4559,-1.4569,-1.4568,-1.4567,-1.4556,-1.4553,-1.455,-1.4588,-1.4588,-1.4589,0,0,-1.4654,-1.4651,-1.4639,-1.4635,-1.4629,-1.4629,-1.4626,-1.4621,-1.4619,-1.4604,-1.4608,-1.4599,-1.4581,-1.4575,-1.457,-1.4546,-1.4549,-1.4542,-1.453,-1.452,-1.4517,-1.4515,-1.4506,-1.4503,-1.454,-1.454,-1.454,0,-1.4642,-1.4628,-1.4631,-1.462,-1.4616,-1.4622,-1.4609,-1.4605,-1.4596,-1.4592,-1.4597,-1.4575,-1.457,-1.4551,-1.4545,-1.4541,-1.4537,-1.4543,-1.4517,-1.4515,-1.4513,-1.4504,-1.4501,-1.454,-1.454,-1.454,-1.454,0,-1.4614,-1.4604,-1.4595,-1.4588,-1.4582,-1.457,-1.457,-1.4564,-1.4566,-1.4565,-1.4549,-1.4544,-1.4533,-1.4529,-1.453,-1.451,-1.4513,-1.4518,-1.4527,-1.4509,-1.4501,-1.4498,-1.4539,-1.4539,-1.4539,-1.4539,0,0,-1.4582,-1.4578,-1.4574,-1.4571,-1.4566,-1.4558,-1.4546,-1.4537,-1.4531,-1.4525,-1.4515,-1.45,-1.4505,-1.4499,-1.45,-1.4491,-1.4472,-1.4497,-1.4497,-1.4492,-1.4449,-1.4445,-1.4441,-1.4474,-1.4474,-1.4473,-1.445,0,-1.4559,-1.4539,-1.4542,-1.4523,-1.4514,-1.4521,-1.4511,-1.4506,-1.4505,-1.4496,-1.4494,-1.4484,-1.4491,-1.4488,-1.4479,-1.4476,-1.4463,-1.4478,-1.4464,-1.4463,-1.4465,-1.4437,-1.4433,-1.441,-1.4447,-1.4446,-1.4446,0,-1.4529,-1.4523,-1.4503,-1.45,-1.4497,-1.4487,-1.448,-1.4472,-1.4466,-1.4466,-1.446,-1.4463,-1.445,-1.446,-1.4442,-1.4452,-1.4447,-1.4444,-1.4444,-1.4442,-1.4453,-1.4434,-1.4403,-1.44,-1.4441,-1.4441,-1.4442,0,-1.4507,-1.4494,-1.4481,-1.4478,-1.4474,-1.4468,-1.4465,-1.4461,-1.4455,-1.4448,-1.4445,-1.4436,-1.443,-1.4423,-1.4423,-1.443,-1.4405,-1.4415,-1.4403,-1.4403,-1.4397,-1.4397,-1.4364,-1.4394,-1.4394,-1.4394,-1.4394,0,-1.448,-1.4468,-1.4471,-1.4463,-1.445,-1.4453,-1.4439,-1.4437,-1.4433,-1.4424,-1.4429,-1.442,-1.4421,-1.4412,-1.4411,-1.4397,-1.4394,-1.4393,-1.4393,-1.4392,-1.4392,-1.4388,-1.4389,-1.4393,-1.4394,-1.4394,-1.4394,0,-1.4453,-1.4455,-1.4441,-1.4439,-1.4438,-1.4428,-1.4426,-1.4418,-1.4418,-1.4406,-1.4404,-1.4403,-1.4392,-1.4392,-1.4379,-1.4379,-1.4361,-1.4363,-1.4363,-1.4363,-1.4352,-1.4352,-1.4314,-1.4309,-1.4343,-1.4343,-1.4342,0,-1.4436,-1.4427,-1.4424,-1.4419,-1.4417,-1.4409,-1.4404,-1.4407,-1.4401,-1.4395,-1.4387,-1.4378,-1.437,-1.4353,-1.435,-1.4341,-1.4342,-1.433,-1.4341,-1.434,-1.4341,-1.4342,-1.4341,-1.4327,-1.4327,-1.4326,-1.4326,0,-1.4404,-1.4406,-1.44,-1.4393,-1.4388,-1.4382,-1.4378,-1.4373,-1.4375,-1.4369,-1.4359,-1.4353,-1.4342,-1.4332,-1.4323,-1.4319,-1.4323,-1.4323,-1.432,-1.4318,-1.4319,-1.4318,-1.4357,-1.4323,-1.4324,-1.4324,-1.4324,-1.4324,-1.4381,-1.4374,-1.4371,-1.4363,-1.4361,-1.4356,-1.4349,-1.4348,-1.4341,-1.4332,-1.4334,-1.4323,-1.4318,-1.4307,-1.4303,-1.4294,-1.4298,-1.4293,-1.4292,-1.429,-1.4289,-1.4321,-1.4292,-1.4292,-1.4292,-1.4292,-1.4292,0,-1.435,-1.4349,-1.4342,-1.4336,-1.433,-1.4336,-1.4331,-1.4325,-1.4316,-1.4312,-1.4305,-1.4293,-1.4284,-1.4282,-1.4273,-1.4266,-1.4267,-1.4263,-1.4263,-1.4262,-1.4286,-1.429,-1.4262,-1.4262,-1.4262,-1.4262,-1.4262,-1.4262,-1.4333,-1.4321,-1.4322,-1.4308,-1.4307,-1.4297,-1.4294,-1.429,-1.4286,-1.4274,-1.4267,-1.4266,-1.4262,-1.4253,-1.4245,-1.4244,-1.424,-1.4235,-1.4235,-1.4257,-1.426,-1.4263,-1.4267,-1.4235,-1.4235,-1.4212,-1.4212,-1.4212]}]]